Regional Weather Roundup
Issued by NWS

Home | Current Version | Previous Version | Graphics & Text | Print | Product List | Glossary On
Versions: 1 2 3 4 5 6 7 8 9 10 11 12 13 14 15 16 17 18 19 20 21 22 23 24 25 26 27 28 29 30 31 32 33 34 35 36 37 38 39 40 41 42 43 44 45 46 47 48 49 50
000
ASUS43 KFSD 221710
RWRSD

WEATHER ROUNDUP FOR SOUTH DAKOTA
NATIONAL WEATHER SERVICE SIOUX FALLS SD
1200 PM CDT MON MAY 22 2017

NOTE: "FAIR" INDICATES FEW OR NO CLOUDS BELOW 12,000 FEET WITH NO
SIGNIFICANT WEATHER AND/OR OBSTRUCTIONS TO VISIBILITY.


SDZ001>005-009-010-012>017-221800-
NORTHWEST AND NORTH CENTRAL SOUTH DAKOTA

CITY           SKY/WX    TMP DP  RH WIND       PRES   REMARKS
BUFFALO          N/A     56  43  61 NW22G31   29.96S
FAITH            N/A     58  45  62 N23G31    29.97S
MOBRIDGE       CLOUDY    54  42  64 N10       29.92R
$$

SDZ012>016-024>037-041>051-057-063-072>074-221800-
SOUTHWEST AND SOUTH CENTRAL SOUTH DAKOTA

CITY           SKY/WX    TMP DP  RH WIND       PRES   REMARKS
RAPID CTY ARPT MOSUNNY   60  41  49 N22G30    30.00F
PIERRE         CLOUDY    57  47  69 NW17      29.92S
CUSTER         CLOUDY    52  27  38 N12G21    30.04S
ELLSWORTH AFB  MOSUNNY   60  41  51 N24G31    30.01R
PHILIP         CLOUDY    62  44  51 NW15      29.96F
PINE RIDGE     MOSUNNY   59  43  55 NW9       30.03F
SPEARFISH      FAIR      50  45  81 NW15      30.06R
WINNER         FAIR      61  49  64 NW14      29.96F
$$

SDZ004>011-016>023-039-040-221800-
NORTHEAST SOUTH DAKOTA

CITY           SKY/WX    TMP DP  RH WIND       PRES   REMARKS
ABERDEEN       CLOUDY    57  37  47 N13       29.91R
WATERTOWN      MOSUNNY   61  43  51 N7        29.87S
BROOKINGS      MOSUNNY   60  48  64 W13       29.88R
SISSETON         N/A     57  42  57 N9        29.87F
$$

SDZ017-020-022-023-036>040-048>070-221800-
SOUTHEAST SOUTH DAKOTA

CITY           SKY/WX    TMP DP  RH WIND       PRES   REMARKS
SIOUX FALLS    PTSUNNY   62  52  69 W10       29.88S
HURON          LGT RAIN  51  50  96 NW13      29.89F
CHAMBERLAIN    CLOUDY    59  50  70 NW13      29.94S
MITCHELL       CLOUDY    57  48  72 NW13G20   29.91F
YANKTON          N/A     65  49  56 SW17G24   29.90F
$$

ABBREVIATIONS USED IN REMARKS
   TC - TEMPERATURE IN CELSIUS
  WCI - WIND CHILL INDEX
   HX - HEAT INDEX
  VSB - VISIBILITY





USA.gov is the U.S. government's official web portal to all federal, state and local government web resources and services.